Regional Weather Roundup
Issued by NWS Spokane, WA

Home | Current Version | Previous Version | Text Only | Print | Product List | Glossary On
Versions: 1 2 3 4 5 6 7 8 9 10 11 12 13 14 15 16 17 18 19 20 21 22 23 24 25 26 27 28 29 30 31 32 33 34 35 36 37 38 39 40 41 42 43 44 45 46 47 48 49 50
865
NZUS01 KOTX 242210
RWROTX
EASTERN WASHINGTON/NORTHERN IDAHO ROUNDUP
NATIONAL WEATHER SERVICE, SPOKANE WA
300 PM PDT SUN JUL 24 2016

Note: "fair" indicated few or no clouds below 12,000 feet with no
significant weather and/or obstructions to visibility.

...NORTHEAST WASHINGTON AND NORTHERN IDAHO PANHANDLE...

CITY           SKY/WX    TMP DP  RH WIND       PRES   REMARKS
SPOKANE INTL   MOSUNNY   85  42  22 NE6       30.06F
SPOKANE DOWNTO SUNNY     85  45  24 MISG      30.05F
COEUR D ALENE  SUNNY     82  52  34 NW5       30.04S
DEER PARK      SUNNY     83  45  26 VRB5      30.07F
SANDPOINT      SUNNY     79  52  38 E12       30.05F
BONNERS FERRY    N/A     82  50  32 SW7       30.04F

...SOUTHEAST WASHINGTON AND SOUTHERN IDAHO PANHANDLE...

CITY           SKY/WX    TMP DP  RH WIND       PRES   REMARKS
WALLA WALLA    SUNNY     88  45  22 MISG      29.99F
PULLMAN/MOSCOW SUNNY     82  41  23 SW3       30.08F
LEWISTON       SUNNY     90  39  16 VRB6      30.00F
LOWELL           N/A     92  51  24 VRB3      29.97F

...COLUMBIA BASIN...

CITY           SKY/WX    TMP DP  RH WIND       PRES   REMARKS
EPHRATA        SUNNY     85  45  24 SW7       30.01F
MOSES LAKE     SUNNY     89  45  21 S8        30.02F
TRI CITIES     SUNNY     89  48  24 NW6       29.97F
HERMISTON      SUNNY     91  48  22 MISG      29.97F
PENDLETON      SUNNY     88  41  19 NW8G18    30.00F

...EAST SLOPES CASCADES...

CITY           SKY/WX    TMP DP  RH WIND       PRES   REMARKS
THE DALLES     SUNNY     93  39  15 E3        29.94F
YAKIMA         SUNNY     91  43  18 E3        30.00F
ELLENSBURG     SUNNY     89  43  20 CALM      30.02F
STAMPEDE PASS  SUNNY     71  52  50 VRB6      30.17S
WENATCHEE      SUNNY     85  48  27 E9        29.99F
OMAK           SUNNY     88  43  20 S6G16     30.00F

...SOUTHERN BRITISH COLUMBIA...

CITY           SKY/WX    TMP DP  RH WIND       PRES   REMARKS
PENTICTON      MOSUNNY   88  52  29 S8        29.96F
CASTLEGAR      MOSUNNY   86  54  32 S5        29.99F
CRANBROOK      MOSUNNY   82  48  30 E8        30.03F

...WESTERN MONTANA...

CITY           SKY/WX    TMP DP  RH WIND       PRES   REMARKS
MISSOULA       SUNNY     84  40  21 CALM      30.07F

...NEIGHBORING CITIES...

CITY           SKY/WX    TMP DP  RH WIND       PRES   REMARKS
SEATTLE        SUNNY     78  58  49 NW10      30.09F
CALGARY        MOSUNNY   77  48  36 S17       29.97F



USA.gov is the U.S. government's official web portal to all federal, state and local government web resources and services.